Location: Lake Sonoma
(38.7200°N, 123.0564°W)
Time: 19:20:46
(UTC-07:00)

Amateur Radio Satellites - All Passes

Search period start: 20 August 2014 18:50
Search period end: 21 August 2014 18:50
Location: Lake Sonoma, 38.7200°N, 123.0564°W

Satellite Date Start Highest point End Downlink Frequencies (MHz)
Time Altitude Azimuth
RS-15 20 Aug 18:55:31 19:06:37 72° 56° (NE) 19:18:08 29.354 - 29.394 USB, Beacon 29.352 USB
PCSat 20 Aug 19:07:11 19:12:04 36° 110° (ESE) 19:16:58 145.825 MHz
Hamsat 20 Aug 19:07:17 19:11:01 29° 264° (W) 19:14:48 145.90 MHz
STRAND 1 20 Aug 19:14:46 19:19:02 26° 96° (E) 19:23:16 ?
HO-68 20 Aug 19:29:35 19:32:43 13° 53° (NE) 19:35:51 435.675 MHz FM
OPAL 20 Aug 19:30:23 19:31:57 11° 303° (WNW) 19:33:31 ?
SO-67 20 Aug 19:43:22 19:46:49 75° 259° (W) 19:50:18 435.3500 MHz FM
Oscar 10/S400 20 Aug 20:13:14 20:31:57 55° 157° (SSE) 21:37:12 145.825 - 145.975 CW/USB, Beacon 145.810 USB
Sapphire 20 Aug 20:19:14 20:24:33 59° 301° (WNW) 20:29:55 437.095 MHz 1200 baud AX-25 AFSK
PANSAT 20 Aug 20:25:24 20:27:40 15° 189° (S) 20:29:56 not established
JAS-2 20 Aug 20:25:31 20:27:50 12° 269° (W) 20:30:05 435.800 - 435.900 CW/SSB, 435.910 FM
ISS 20 Aug 20:27:38 20:30:15 21° 26° (NNE) 20:32:52 145.800 FM
PCSat 20 Aug 20:50:42 20:55:28 31° 307° (NW) 21:00:17 145.825 MHz
STRAND 1 20 Aug 20:53:40 20:58:13 34° 291° (WNW) 21:02:45 ?
RS-15 20 Aug 21:08:59 21:18:03 30° 256° (WSW) 21:27:27 29.354 - 29.394 USB, Beacon 29.352 USB
HO-68 20 Aug 21:12:06 21:19:12 73° 71° (ENE) 21:26:20 435.675 MHz FM
UKube-1 20 Aug 21:39:12 21:43:30 67° 75° (ENE) 21:47:51 145.840 MHz, 145.915 MHz
FUNcube-1 20 Aug 21:54:02 21:56:57 19° 67° (ENE) 21:59:54 145.950 - 145.970 MHz USB
Oscar 11 20 Aug 21:57:04 22:01:18 59° 74° (ENE) 22:05:34 145.825 FM, Beacon 2401.500 USB
ISS 20 Aug 22:03:55 22:07:12 54° 223° (SW) 22:10:27 145.800 FM
Sapphire 20 Aug 22:08:38 22:09:09 10° 321° (NW) 22:09:41 437.095 MHz 1200 baud AX-25 AFSK
HO-68 20 Aug 23:02:41 23:07:29 19° 268° (W) 23:12:19 435.675 MHz FM
FUNcube-1 20 Aug 23:29:25 23:33:08 32° 263° (W) 23:36:53 145.950 - 145.970 MHz USB
Oscar 11 20 Aug 23:36:40 23:37:50 11° 270° (W) 23:39:01 145.825 FM, Beacon 2401.500 USB
AO-40 20 Aug 23:44:43 03:24:10 30° 130° (SE) 04:49:30 Beacon 2401.320
KITSAT 1 21 Aug 00:50:20 00:56:56 29° 105° (ESE) 01:03:33 435.175 FM
MaSat-1 21 Aug 01:14:58 01:19:34 39° 58° (ENE) 01:23:37 437.345 MHz
Saudisat 1A 21 Aug 01:27:58 01:32:14 52° 117° (ESE) 01:36:32 436.775 MHz
Oscar 16 21 Aug 01:36:56 01:40:02 16° 92° (E) 01:43:07 437.025 USB, Beacon 2401.1428
JAS-1B 21 Aug 02:19:56 02:24:24 17° 86° (E) 02:28:26 435.800 - 435.900 CW/SSB
Oscar 19 21 Aug 02:41:34 02:46:46 67° 102° (ESE) 02:51:55 437.125 CW, 437.150 USB
KITSAT 1 21 Aug 02:43:48 02:51:46 61° 304° (WNW) 02:59:48 435.175 FM
Gurwin Techsat 1B 21 Aug 02:45:10 02:47:27 13° 90° (E) 02:49:45 435.225 FM
ITAMSAT 1 21 Aug 02:49:50 02:54:30 33° 97° (E) 02:59:08 435.822 SSB
MaSat-1 21 Aug 02:52:55 02:56:16 20° 259° (WSW) 02:59:20 437.345 MHz
AO-Echo 21 Aug 02:55:21 02:59:48 40° 98° (E) 03:04:11 ?
Uribyol 2 21 Aug 03:02:22 03:07:22 48° 100° (E) 03:12:21 436.500 FM
Saudisat 1A 21 Aug 03:09:03 03:12:07 18° 315° (NW) 03:15:12 436.775 MHz
Oscar 16 21 Aug 03:14:38 03:19:44 58° 287° (WNW) 03:24:48 437.025 USB, Beacon 2401.1428
AO-27 21 Aug 03:15:38 03:20:46 62° 101° (ESE) 03:25:53 436.795 MHz FM
OPAL 21 Aug 03:25:53 03:29:05 17° 61° (ENE) 03:32:18 ?
Sapphire 21 Aug 03:26:53 03:29:37 14° 43° (NE) 03:32:22 437.095 MHz 1200 baud AX-25 AFSK
TMSAT-1 21 Aug 03:41:45 03:46:32 34° 97° (E) 03:51:18 436.925 FM
PCSat 21 Aug 03:56:27 04:00:50 24° 50° (NE) 04:05:10 145.825 MHz
JAS-1B 21 Aug 04:08:32 04:16:02 71° 288° (WNW) 04:22:17 435.800 - 435.900 CW/SSB
Oscar 19 21 Aug 04:22:37 04:25:31 15° 298° (WNW) 04:28:24 437.125 CW, 437.150 USB
Gurwin Techsat 1B 21 Aug 04:22:37 04:27:55 72° 286° (WNW) 04:33:11 435.225 FM
ITAMSAT 1 21 Aug 04:29:31 04:33:51 28° 293° (WNW) 04:38:10 435.822 SSB
AO-Echo 21 Aug 04:34:55 04:38:17 20° 294° (WNW) 04:41:37 ?
Uribyol 2 21 Aug 04:42:46 04:46:29 20° 296° (WNW) 04:50:11 436.500 FM
KITSAT 1 21 Aug 04:44:09 04:49:01 17° 327° (NNW) 04:53:53 435.175 FM
AO-27 21 Aug 04:56:40 04:59:45 16° 298° (WNW) 05:02:49 436.795 MHz FM
OPAL 21 Aug 05:02:35 05:07:28 56° 257° (WSW) 05:12:28 ?
Sapphire 21 Aug 05:08:26 05:13:54 83° 62° (ENE) 05:19:19 437.095 MHz 1200 baud AX-25 AFSK
AO-7 21 Aug 05:11:07 05:19:07 50° 101° (ESE) 05:27:02 29.400 - 29.500 MHz
Uosat F 21 Aug 05:14:37 05:19:29 51° 100° (E) 05:24:19 435.120 FM
TMSAT-1 21 Aug 05:21:51 05:26:19 28° 293° (WNW) 05:30:46 436.925 FM
PCSat 21 Aug 05:39:16 05:44:30 49° 248° (WSW) 05:49:41 145.825 MHz
JAS-1B 21 Aug 06:02:13 06:04:52 12° 311° (NW) 06:07:24 435.800 - 435.900 CW/SSB
STRAND 1 21 Aug 06:29:25 06:33:59 34° 69° (ENE) 06:38:33 ?
SO-50 21 Aug 06:39:26 06:43:52 72° 119° (ESE) 06:48:24 436.795 FM
Hamsat 21 Aug 06:53:44 06:58:01 52° 99° (E) 07:02:15 145.90 MHz
Uosat F 21 Aug 06:54:31 06:57:51 18° 296° (WNW) 07:01:11 435.120 FM
Sapphire 21 Aug 06:54:44 06:56:32 12° 258° (WSW) 06:58:19 437.095 MHz 1200 baud AX-25 AFSK
AO-7 21 Aug 07:04:17 07:11:37 37° 299° (WNW) 07:18:55 29.400 - 29.500 MHz
JAS-2 21 Aug 07:31:08 07:36:19 86° 284° (WNW) 07:41:39 435.800 - 435.900 CW/SSB, 435.910 FM
UOSAT-12 21 Aug 07:57:50 08:01:57 34° 114° (ESE) 08:06:09 437.025 FM, 437.400 FM
STRAND 1 21 Aug 08:08:55 08:13:10 26° 264° (W) 08:17:26 ?
SO-50 21 Aug 08:22:19 08:24:57 15° 318° (NW) 08:27:37 436.795 FM
Hamsat 21 Aug 08:31:17 08:33:30 14° 295° (WNW) 08:35:43 145.90 MHz
SO-67 21 Aug 08:41:28 08:44:50 48° 285° (WNW) 08:48:10 435.3500 MHz FM
HO-68 21 Aug 08:44:13 08:47:17 13° 89° (E) 08:50:21 435.675 MHz FM
KITSAT 1 21 Aug 08:44:32 08:48:52 15° 30° (NNE) 08:53:10 435.175 FM
RS-15 21 Aug 09:17:16 09:27:53 52° 111° (ESE) 09:38:15 29.354 - 29.394 USB, Beacon 29.352 USB
UKube-1 21 Aug 09:30:51 09:32:40 12° 92° (E) 09:34:30 145.840 MHz, 145.915 MHz
UOSAT-12 21 Aug 09:38:09 09:42:07 28° 311° (NW) 09:46:10 437.025 FM, 437.400 FM
Oscar 11 21 Aug 09:48:10 09:49:50 12° 91° (E) 09:51:30 145.825 FM, Beacon 2401.500 USB
Saudisat 1A 21 Aug 09:56:07 10:00:02 30° 51° (NE) 10:03:54 436.775 MHz
HO-68 21 Aug 10:28:41 10:35:53 85° 106° (ESE) 10:43:03 435.675 MHz FM
KITSAT 1 21 Aug 10:38:26 10:46:20 54° 55° (NE) 10:54:10 435.175 FM
UKube-1 21 Aug 11:04:57 11:09:10 53° 287° (WNW) 11:13:23 145.840 MHz, 145.915 MHz
FUNcube-1 21 Aug 11:19:00 11:23:19 50° 100° (E) 11:27:42 145.950 - 145.970 MHz USB
Oscar 11 21 Aug 11:22:03 11:26:20 55° 286° (WNW) 11:30:36 145.825 FM, Beacon 2401.500 USB
RS-15 21 Aug 11:29:52 11:40:20 46° 313° (NW) 11:50:44 29.354 - 29.394 USB, Beacon 29.352 USB
Saudisat 1A 21 Aug 11:35:47 11:39:31 27° 247° (WSW) 11:43:14 436.775 MHz
HO-68 21 Aug 12:18:09 12:22:41 18° 304° (WNW) 12:27:13 435.675 MHz FM
KITSAT 1 21 Aug 12:34:24 12:41:21 33° 253° (WSW) 12:48:18 435.175 FM
Oscar 16 21 Aug 12:52:36 12:56:22 21° 65° (ENE) 13:00:10 437.025 USB, Beacon 2401.1428
FUNcube-1 21 Aug 12:56:48 12:59:18 15° 294° (WNW) 13:01:50 145.950 - 145.970 MHz USB
JAS-1B 21 Aug 13:00:48 13:07:45 23° 57° (ENE) 13:14:24 435.800 - 435.900 CW/SSB
RS-15 21 Aug 13:49:35 13:56:33 18° 345° (NNW) 14:03:33 29.354 - 29.394 USB, Beacon 29.352 USB
Oscar 19 21 Aug 13:57:06 14:02:14 83° 75° (ENE) 14:07:25 437.125 CW, 437.150 USB
Gurwin Techsat 1B 21 Aug 14:04:31 14:08:12 20° 64° (ENE) 14:11:54 435.225 FM
ITAMSAT 1 21 Aug 14:06:31 14:11:25 45° 71° (ENE) 14:16:20 435.822 SSB
AO-Echo 21 Aug 14:06:33 14:11:32 48° 72° (ENE) 14:16:23 ?
Uribyol 2 21 Aug 14:18:56 14:24:01 63° 73° (ENE) 14:29:08 436.500 FM
AO-7 21 Aug 14:22:15 14:25:24 13° 47° (NE) 14:28:33 29.400 - 29.500 MHz
Oscar 16 21 Aug 14:30:29 14:35:23 45° 261° (W) 14:40:20 437.025 USB, Beacon 2401.1428
AO-27 21 Aug 14:32:27 14:37:38 82° 75° (ENE) 14:42:50 436.795 MHz FM
ISS 21 Aug 14:45:16 14:48:34 80° 322° (NW) 14:51:54 145.800 FM
JAS-1B 21 Aug 14:47:06 14:57:02 86° 74° (ENE) 15:06:34 435.800 - 435.900 CW/SSB
TMSAT-1 21 Aug 15:01:09 15:06:11 47° 71° (ENE) 15:11:14 436.925 FM
MaSat-1 21 Aug 15:02:51 15:06:28 23° 102° (ESE) 15:10:22 437.345 MHz
SO-50 21 Aug 15:12:14 15:16:50 45° 54° (NE) 15:21:29 436.795 FM
Oscar 19 21 Aug 15:41:45 15:42:10 10° 271° (W) 15:42:35 437.125 CW, 437.150 USB
Gurwin Techsat 1B 21 Aug 15:42:35 15:47:44 52° 260° (W) 15:52:56 435.225 FM
AO-Echo 21 Aug 15:46:55 15:50:29 19° 267° (W) 15:54:01 ?
ITAMSAT 1 21 Aug 15:47:19 15:51:05 20° 266° (W) 15:54:53 435.822 SSB
Uribyol 2 21 Aug 16:01:15 16:03:54 14° 269° (W) 16:06:34 436.500 FM
RS-15 21 Aug 16:07:12 16:14:56 21° 22° (NNE) 16:22:46 29.354 - 29.394 USB, Beacon 29.352 USB
AO-7 21 Aug 16:08:19 16:16:27 60° 67° (ENE) 16:24:36 29.400 - 29.500 MHz
AO-27 21 Aug 16:16:47 16:17:43 10° 271° (W) 16:18:40 436.795 MHz FM
ISS 21 Aug 16:23:39 16:25:45 16° 340° (NNW) 16:27:51 145.800 FM
Uosat F 21 Aug 16:26:30 16:31:26 62° 73° (ENE) 16:36:24 435.120 FM
UOSAT-12 21 Aug 16:28:44 16:32:32 23° 47° (NE) 16:36:17 437.025 FM, 437.400 FM
MaSat-1 21 Aug 16:38:49 16:43:16 40° 301° (WNW) 16:48:06 437.345 MHz
JAS-1B 21 Aug 16:41:01 16:48:13 23° 270° (W) 16:55:20 435.800 - 435.900 CW/SSB
TMSAT-1 21 Aug 16:42:29 16:46:18 20° 267° (W) 16:50:10 436.925 FM
PANSAT 21 Aug 16:42:31 16:43:35 11° 164° (SSE) 16:44:38 not established
SO-50 21 Aug 16:53:34 16:57:06 21° 250° (WSW) 17:00:39 436.795 FM
OPAL 21 Aug 17:13:41 17:18:37 42° 101° (E) 17:23:33 ?
JAS-2 21 Aug 17:41:26 17:47:28 37° 70° (ENE) 17:52:53 435.800 - 435.900 CW/SSB, 435.910 FM
Hamsat 21 Aug 17:45:59 17:49:45 31° 71° (ENE) 17:53:33 145.90 MHz
AO-7 21 Aug 18:02:39 18:09:36 29° 264° (W) 18:16:36 29.400 - 29.500 MHz
Uosat F 21 Aug 18:08:03 18:10:36 14° 268° (W) 18:13:10 435.120 FM
UOSAT-12 21 Aug 18:08:23 18:12:51 43° 245° (WSW) 18:17:14 437.025 FM, 437.400 FM
Sapphire 21 Aug 18:09:24 18:11:26 12° 102° (ESE) 18:13:28 437.095 MHz 1200 baud AX-25 AFSK
RS-15 21 Aug 18:19:33 18:30:26 57° 52° (NE) 18:41:40 29.354 - 29.394 USB, Beacon 29.352 USB
PANSAT 21 Aug 18:20:29 18:23:05 17° 177° (S) 18:25:40 not established
PCSat 21 Aug 18:37:16 18:41:39 26° 107° (ESE) 18:46:03 145.825 MHz
STRAND 1 21 Aug 18:43:16 18:45:13 12° 90° (E) 18:47:11 ?
